Regional Weather Roundup
Issued by NWS

Home | Current Version | Previous Version | Graphics & Text | Print | Product List | Glossary On
Versions: 1 2 3 4 5 6 7 8 9 10 11 12 13 14 15 16 17 18 19 20 21 22 23 24 25 26 27 28 29 30 31 32 33 34 35 36 37 38 39 40 41 42 43 44 45 46 47 48 49 50
000
ASUS45 KPSR 021700
RWRAZ

PRELIMINARY ARIZONA REGIONAL HOURLY WEATHER ROUNDUP
NATIONAL WEATHER SERVICE PHOENIX AZ
1000 AM MST THU OCT 02 2014

NOTE: FAIR INDICATES FEW OR NO CLOUDS BELOW 12,000 FEET WITH NO
SIGNIFICANT WEATHER AND/OR OBSTRUCTIONS TO VISIBILITY.

AZZ001>003-036-021800-
NORTHWEST ARIZONA

CITY           SKY/WX    TMP DP  RH WIND       PRES   REMARKS
KINGMAN        SUNNY     67  26  21 N15       30.22R
$$

AZZ004>008-015-016-018-021800-
NORTH CENTRAL ARIZONA

CITY           SKY/WX    TMP DP  RH WIND       PRES   REMARKS
GRAND CANYON   SUNNY     53  24  32 MISG      30.36R
PRESCOTT       SUNNY     61  29  29 NE7       30.27R
FLAGSTAFF      SUNNY     51  20  29 E12G22    30.36R
PAYSON         SUNNY     63  27  25 N7        30.27S
PAGE           SUNNY     59  22  24 NW5       30.32R
$$

AZZ009>014-017-021800-
NORTHEAST ARIZONA

CITY           SKY/WX    TMP DP  RH WIND       PRES   REMARKS
WINSLOW        NOT AVBL
SAINT JOHNS    SUNNY     57  29  34 VRB6      30.30S
SHOW LOW       SUNNY     50  25  37 N8        30.35F
$$

AZZ023-021800-
GREATER PHOENIX AREA

CITY           SKY/WX    TMP DP  RH WIND       PRES   REMARKS
PHOENIX        SUNNY     82  34  17 NE14      30.03R
GLENDALE       SUNNY     81  37  21 N9        30.06R
LUKE AFB       SUNNY     80  36  20 NE12      30.04R
DEER VALLEY    SUNNY     79  34  19 N6        30.05R
SCOTTSDALE     SUNNY     81  35  19 E6        30.06R
MESA-FALCON    SUNNY     73  36  25 NE15      30.04S
MESA-GATEWAY   SUNNY     77  43  29 CALM      30.06R
CHANDLER       SUNNY     81  41  24 N14       30.03S
$$

AZZ027-028-021800-
SOUTHWEST MARICOPA COUNTY AND PINAL COUNTY

CITY           SKY/WX    TMP DP  RH WIND       PRES   REMARKS
CASA GRANDE    SUNNY     81  37  21 NE6       30.05S
GILA BEND      SUNNY     81  41  24 E6        30.03R
$$

AZZ503-504-507>509-021800-
SOUTHEAST ARIZONA

CITY           SKY/WX    TMP DP  RH WIND       PRES   REMARKS
TUCSON         SUNNY     77  42  28 N5        30.10R
DAVIS-MONTHAN  SUNNY     74  41  29 VRB3      30.08R
RYAN FIELD       N/A     79  43  27 E6        30.09R
NOGALES        SUNNY     73  45  36 CALM      30.12S
SIERRA VISTA   SUNNY     72  39  30 NE7       30.19R
SAFFORD        SUNNY     73  39  29 W8        30.13R
$$

AZZ020-021-025-026-031-021800-
SOUTHWEST ARIZONA

CITY           SKY/WX    TMP DP  RH WIND       PRES   REMARKS
YUMA           SUNNY     86  27  11 N21G30    29.98S
$$

CAZ031-033-041-043-047-048-061-021800-
SOUTHERN CALIFORNIA

CITY           SKY/WX    TMP DP  RH WIND       PRES   REMARKS
DOWNTOWN L.A.  SUNNY     84  44  24 CALM      29.96S
L.A. AIRPORT   SUNNY     84  42  22 VRB7      29.97R
SAN DIEGO      SUNNY     77  62  59 NW5       29.96S
BURBANK        SUNNY     79  37  22 SE3       29.99R
ONTARIO        SUNNY     81  40  23 W5        30.00S
RIVERSIDE      SUNNY     84  36  18 SE3       30.01S
PALM SPRINGS   SUNNY     88  17   7 NW6       30.05R
EL CENTRO NAS  SUNNY     87  28  12 NE8       30.01R
IMPERIAL       SUNNY     86  25  11 NE15      30.00S
BLYTHE         SUNNY     82  25  12 N20       30.05R
$$

NVZ020-UTZ003-021800-
SOUTHERN NEVADA-UTAH

CITY           SKY/WX    TMP DP  RH WIND       PRES   REMARKS
LAS VEGAS      NOT AVBL
SALT LAKE CITY MOSUNNY   55  35  47 S12       30.29S
$$

NMZ009-TXZ055-021800-
NEW MEXICO-WEST TEXAS

CITY           SKY/WX    TMP DP  RH WIND       PRES   REMARKS
ALBUQUERQUE    SUNNY     57  27  31 N14       30.25S
EL PASO        SUNNY     74  38  27 N15       30.12R
$$


........................KEY........................
SKY/WX - SKY CONDITION/WEATHER
TMP    - TEMPERATURE IN FAHRENHEIT
DP     - DEW POINT IN FAHRENHEIT
RH     - RELATIVE HUMIDITY IN PERCENT
WIND   - DIRECTION AND SPEED IN MILES PER HOUR (MPH)
VRB    - VARIABLE WIND DIRECTION
PRES   - MEAN SEA LEVEL PRESSURE IN INCHES OF MERCURY
         F - FALLING PRESSURE   R - RISING PRESSURE
         S - STEADY PRESSURE
VSB    - VISIBILITY IN MILES
HX     - HEAT INDEX IN FAHRENHEIT
WCI    - WIND CHILL INDEX IN FAHRENHEIT
TC     - TEMPERATURE IN CELSIUS WHICH IS ALSO KNOWN AS
         TEMPERATURE IN CENTIGRADE
AFB    - AIR FORCE BASE
         LUKE AFB IS LUKE AIR FORCE BASE
         DAVIS-MONTHAN IS DAVIS-MONTHAN AIR FORCE BASE
NAS    - NAVAL AIR STATION
         EL CENTRO NAS IS EL CENTRO NAVAL AIR STATION
N/A    - NOT AVAILABLE



USA.gov is the U.S. government's official web portal to all federal, state and local government web resources and services.